Regional Weather Roundup
Issued by NWS

Home | Current Version | Previous Version | Graphics & Text | Print | Product List | Glossary On
Versions: 1 2 3 4 5 6 7 8 9 10 11 12 13 14 15 16 17 18 19 20 21 22 23 24 25 26 27 28 29 30 31 32 33 34 35 36 37 38 39 40 41 42 43 44 45 46 47 48 49 50
000
ASUS43 KMKX 252111
RWRWI

WISCONSIN REGIONAL WEATHER ROUNDUP
NATIONAL WEATHER SERVICE MILWAUKEE/SULLIVAN WI
400 PM CDT WED MAY 25 2016

NOTE: "FAIR" INDICATES FEW OR NO CLOUDS BELOW 12,000 FEET WITH NO
SIGNIFICANT WEATHER AND/OR OBSTRUCTIONS TO VISIBILITY.

WIZ001-002-006>008-014>016-023>028-252200-
NORTHWEST WISCONSIN

CITY           SKY/WX    TMP DP  RH WIND       PRES   REMARKS
SUPERIOR ARPT  RAIN      44  44 100 NE15G21   29.96F
ASHLAND        CLOUDY    50  47  89 NE14      29.93F
HAYWARD        CLOUDY    63  57  81 VRB7      29.86F
SIREN          LGT RAIN  60  58  96 N8        29.87F
CUMBERLAND     TSTM      66  63  88 SW5       29.86S
RICE LAKE      TSTM      65  62  91 W6G28     29.88R VSB 1/4
CHETEK           N/A    N/A N/A N/A CALM      29.86R
LADYSMITH      CLOUDY    71  62  75 S10G23    29.89R
EAU CLAIRE     HVY RAIN  66  63  90 SE6       29.84F FOG
MENOMONIE      CLOUDY    72  67  85 S7        29.84F
NEW RICHMOND   CLOUDY    71  62  73 S10       29.83F
OSCEOLA        PTSUNNY   69  69 100 NE5       29.86F
$$

WIZ003>005-009-010-017-018-252200-
NORTH CENTRAL WISCONSIN

CITY           SKY/WX    TMP DP  RH WIND       PRES   REMARKS
MANITOWISH WTR NOT AVBL
ARBOR VITAE    PTSUNNY   77  53  43 SE12      29.92S
WOODRUFF       PTSUNNY   77  53  43 SE12      29.92S
RHINELANDER    MOSUNNY   76  56  49 E20       29.93F
EAGLE RIVER      N/A     76  49  39 SE9G17    29.94S
LAND O LAKES   SUNNY     76  54  46 E10G17    29.95F
PHILLIPS       CLOUDY    75  59  56 SE13G20   29.88F
TOMAHAWK       CLOUDY    73  59  59 SE3       29.91S
MEDFORD        RAIN      67  63  85 SE7       29.92R
MERRILL        CLOUDY    77  60  55 SE13      29.91F
$$

WIZ029-030-035-036-043>047-252200-
CENTRAL WISCONSIN

CITY           SKY/WX    TMP DP  RH WIND       PRES   REMARKS
WAUSAU         CLOUDY    75  59  57 E12G20    29.90S
MOSINEE        TSTM      72  61  68 E12       29.92S
MARSHFIELD     TSTM      68  64  87 E6        29.88F FOG
STEVENS POINT  RAIN      69  60  72 E13       29.91R
WAUPACA        CLOUDY    78  60  54 E10       29.90S
WAUTOMA        HVY RAIN  72  64  76 NE13      29.87F
WISC RAPIDS    TSTM      68  63  84 SE15      29.91R
CAMP DOUGLAS   CLOUDY    68  68 100 E7        29.85F
$$

WIZ011>013-019>022-031-037>040-048>050-252200-
NORTHEAST WISCONSIN

CITY           SKY/WX    TMP DP  RH WIND       PRES   REMARKS
ANTIGO         CLOUDY    73  59  60 SE18      29.94S
SHAWANO        MOSUNNY   76  60  57 E15       29.94F
OCONTO         MOSUNNY   66  58  76 E13       29.95F
STURGEON BAY   NOT AVBL
GREEN BAY      MOSUNNY   71  59  65 NE14      29.94F
MANITOWOC      PTSUNNY   61  55  81 E14       29.96F
APPLETON       PTSUNNY   75  55  50 E10G17    29.90F
CLINTONVILLE   CLOUDY    73  59  60 E10       29.91F
OSHKOSH        MOSUNNY   74  59  59 E17G25    29.88F
$$

WIZ032>034-041-042-053>061-252200-
SOUTHWEST WISCONSIN

CITY           SKY/WX    TMP DP  RH WIND       PRES   REMARKS
LA CROSSE      MOSUNNY   75  67  76 SE6       29.81F
SPARTA         MOSUNNY   73  67  81 CALM      29.84F
VIROQUA        PTSUNNY   74  66  75 S7        29.84F
BOSCOBEL       CLOUDY    85  62  46 S10G17    29.82F HX  85
PRAIRIE DU CHI CLOUDY    82  63  52 SW8       29.82F HX  83
PLATTEVILLE    CLOUDY    82  63  51 S16G24    29.85F HX  83
$$

WIZ056-057-062-063-064-067-068-252200-
SOUTH CENTRAL WISCONSIN

CITY           SKY/WX    TMP DP  RH WIND       PRES   REMARKS
REEDSBURG      CLOUDY    84  62  48 S10G23    29.83F HX  84
BARABOO/DELLS  CLOUDY    80  63  55 SE9G17    29.84F HX  82
LONE ROCK      PTSUNNY   85  59  41 S14G23    29.82F HX  84
MINERAL POINT  CLOUDY    82  59  44 S14G20    29.85F HX  82
MADISON        CLOUDY    78  66  66 SE13      29.86F HX  80
MIDDLETON      CLOUDY    82  66  58 SE10      29.86F HX  84
WATERTOWN      MOSUNNY   82  65  56 E16G24    29.85F HX  84
MONROE         MOSUNNY   82  59  44 S13G18    29.86F HX  82
JANESVILLE     PTSUNNY   84  59  42 SE10      29.87F HX  84
$$

WIZ051-052-058>065-066-070>072-252200-
SOUTHEAST WISCONSIN

CITY           SKY/WX    TMP DP  RH WIND       PRES   REMARKS
MILWAUKEE      PTSUNNY   61  53  75 NE9       29.93F
WAUKESHA       SUNNY     73  57  56 E13       29.93F
MILWAUKEE/TIMM SUNNY     66  52  59 E7        29.95F
RACINE         MOSUNNY   64  53  67 NE7       29.94F
BURLINGTON     CLOUDY    84  61  46 SE10G18   29.89F HX  84
KENOSHA        CLOUDY    74  60  61 E9        29.91F
FOND DU LAC    MOSUNNY   77  61  57 SE17G24   29.88F
SHEBOYGAN      MOSUNNY   59  53  80 E13       29.96F
WEST BEND      SUNNY     70  57  64 E9        29.92F
JUNEAU         MOSUNNY   78  63  61 E14G23    29.88F THUNDER
$$

LSZ147-162-252200-
LAKE SUPERIOR

STATION/POSITION TIME  TEMP    WIND        PRES    WAVE
                       AIR SEA DIR/SP/G            HT/PER
                 (UTC) (F)     (DEG/KT/KT) (MB)    (FT/S)
W MID LAKE BUOY  2050   41 38   60/ 19/ 21 1015.3F   3/ 4
DEVILS ISLAND    2100   43      50/ 19/ 22 1015.2F
SAXON HARBOR     2000   47     360/  8/ 11 1014.2F
$$

LMZ867-665-643>646-252200-
LAKE MICHIGAN

STATION/POSITION TIME  TEMP    WIND        PRES    WAVE
                       AIR SEA DIR/SP/G            HT/PER
                 (UTC) (F)     (DEG/KT/KT) (MB)    (FT/S)
CHAMBERS ISLAND  2000   57      30/ 11/ 15 1016.6F
N MID LAKE BUOY  2050   49 45   50/ 10/ 10 1015.7F   0
NORTHPORT PIER   2000   56      60/ 11/ 17 1016.6F
SISTER BAY       2004   65      90/  8/ 15   N/A
ALGOMA LAKESHORE 2017           50/ 17/ 23   N/A
KEWAUNEE LAKESHO 2000   52      30/  7/ 10 1015.5F
SHEBOYGAN LAKESH 2100   48      20/  9/ 10 1014.9F
PORT WASHINGTON  2000   54      40/ 13/ 15 1015.9F
S MID LAKE BUOY  2050   60 54  130/  4/  6 1013.4F   0
KENOSHA   LAKESH 2100   54      20/  8/  9 1013.2F
$$

TC  - TEMPERATURE IN CELSIUS
VSB - VISIBILITY IN STATUTE MILES
WCI - WIND CHILL INDEX
HX  - HEAT INDEX




USA.gov is the U.S. government's official web portal to all federal, state and local government web resources and services.